EWG9NU LFMN-EDDK

Flight info

Callsign EWG9NU
Flight time 1h 17m
Altitude 36000
Route IRMAR8A IRMAR DCT KINES DCT VANAS DCT MOBLO DCT UBIMA DCT GILIR DCT PENDU DCT IXILU DCT GIVOR/N0402F300 DCT SORAL DCT IBERA/N0375F240 N853 DIK/N0367F230 N853 ARCKY T853 IBESA T860 ERUKI ERUKI1B
Aircraft A320/M-SDE2E3FGIJ1RWXY/HB1

Departure

Time 2026-04-26 19:05
Airport Nice-Côte d'Azur Airport (LFMN)

Arrival

Time 2026-04-26 20:23
Airport Cologne Bonn Airport (EDDK)
Time Latitude Longitude Altitude Speed Heading
2026-04-26 18:23 43.66422 7.21328 21 ft 0 kts 349°
2026-04-26 18:56 43.66411 7.21331 21 ft 4 kts 352°
2026-04-26 18:56 43.66384 7.21337 21 ft 4 kts 356°
2026-04-26 18:56 43.66359 7.21335 21 ft 4 kts 21°
2026-04-26 18:56 43.66340 7.21315 23 ft 4 kts 72°
2026-04-26 18:57 43.66337 7.21301 22 ft 1 kts 81°
2026-04-26 18:59 43.66338 7.21307 22 ft 1 kts 81°
2026-04-26 19:00 43.66327 7.21352 22 ft 9 kts 136°
2026-04-26 19:00 43.66259 7.21308 21 ft 14 kts 225°
2026-04-26 19:00 43.66177 7.21195 21 ft 19 kts 225°
2026-04-26 19:00 43.66080 7.21062 21 ft 17 kts 222°
2026-04-26 19:01 43.65967 7.21081 23 ft 17 kts 146°
2026-04-26 19:01 43.65863 7.21021 21 ft 20 kts 225°
2026-04-26 19:01 43.65755 7.20873 21 ft 24 kts 225°
2026-04-26 19:01 43.65627 7.20697 21 ft 28 kts 225°
2026-04-26 19:02 43.65483 7.20500 21 ft 30 kts 225°
2026-04-26 19:02 43.65377 7.20353 21 ft 18 kts 225°
2026-04-26 19:02 43.65281 7.20294 21 ft 13 kts 166°
2026-04-26 19:02 43.65234 7.20350 21 ft 15 kts 135°
2026-04-26 19:03 43.65111 7.20501 21 ft 20 kts 158°
2026-04-26 19:03 43.64976 7.20441 23 ft 23 kts 225°
2026-04-26 19:03 43.64858 7.20278 21 ft 21 kts 224°
2026-04-26 19:03 43.64765 7.20176 22 ft 15 kts 189°
2026-04-26 19:04 43.64695 7.20242 23 ft 8 kts 132°
2026-04-26 19:04 43.64695 7.20276 23 ft 0 kts 46°
2026-04-26 19:04 43.64776 7.20390 23 ft 51 kts 45°
2026-04-26 19:05 43.65933 7.21972 161 ft 160 kts 45°
2026-04-26 19:05 43.66646 7.23143 816 ft 163 kts 71°
2026-04-26 19:05 43.66659 7.24664 1516 ft 161 kts 112°
2026-04-26 19:06 43.66005 7.25882 2220 ft 158 kts 137°
2026-04-26 19:06 43.65213 7.26919 2904 ft 157 kts 136°
2026-04-26 19:06 43.64421 7.27981 3459 ft 165 kts 135°
2026-04-26 19:06 43.63532 7.29150 3795 ft 188 kts 141°
2026-04-26 19:07 43.62249 7.29808 4101 ft 214 kts 181°
2026-04-26 19:07 43.60849 7.29036 4665 ft 226 kts 225°
2026-04-26 19:07 43.59992 7.27224 5480 ft 229 kts 250°
2026-04-26 19:07 43.59802 7.25034 6262 ft 234 kts 276°
2026-04-26 19:08 43.59998 7.22784 7033 ft 239 kts 278°
2026-04-26 19:09 43.61387 7.13834 10281 ft 246 kts 309°
2026-04-26 19:09 43.62623 7.12217 11043 ft 248 kts 330°
2026-04-26 19:09 43.64257 7.11289 11574 ft 262 kts 344°
2026-04-26 19:09 43.66061 7.10518 12051 ft 282 kts 344°
2026-04-26 19:10 43.68016 7.09680 12354 ft 307 kts 343°
2026-04-26 19:10 43.70132 7.08763 12614 ft 327 kts 343°
2026-04-26 19:10 43.72359 7.07785 12875 ft 347 kts 343°
2026-04-26 19:10 43.74721 7.06741 13312 ft 361 kts 343°
2026-04-26 19:11 43.77122 7.05676 14096 ft 365 kts 342°
2026-04-26 19:11 43.79556 7.04596 14789 ft 369 kts 342°
2026-04-26 19:11 43.82019 7.03508 15470 ft 374 kts 344°
2026-04-26 19:11 43.84572 7.02749 16143 ft 377 kts 349°
2026-04-26 19:12 43.87110 7.02107 17298 ft 367 kts 349°
2026-04-26 19:12 43.89627 7.01499 18116 ft 368 kts 349°
2026-04-26 19:12 43.92169 7.00897 18771 ft 372 kts 349°
2026-04-26 19:12 43.94729 7.00291 19394 ft 375 kts 349°
2026-04-26 19:13 43.97314 6.99670 20030 ft 378 kts 349°
2026-04-26 19:13 43.99911 6.99035 20660 ft 381 kts 349°
2026-04-26 19:13 44.02531 6.98389 21322 ft 383 kts 349°
2026-04-26 19:13 44.05163 6.97739 21990 ft 386 kts 349°
2026-04-26 19:14 44.07815 6.97084 22614 ft 389 kts 349°
2026-04-26 19:14 44.10487 6.96425 23242 ft 392 kts 349°
2026-04-26 19:14 44.13189 6.95756 23843 ft 396 kts 349°
2026-04-26 19:14 44.14105 6.95529 24015 ft 397 kts 349°
2026-04-26 19:15 44.18652 6.94402 24853 ft 402 kts 348°
2026-04-26 19:15 44.21420 6.93717 25333 ft 405 kts 348°
2026-04-26 19:15 44.24204 6.93026 25801 ft 408 kts 348°
2026-04-26 19:15 44.27011 6.92333 26255 ft 411 kts 348°
2026-04-26 19:16 44.29840 6.91632 26708 ft 414 kts 348°
2026-04-26 19:16 44.32689 6.90923 27146 ft 417 kts 348°
2026-04-26 19:16 44.35557 6.90209 27581 ft 420 kts 348°
2026-04-26 19:16 44.38444 6.89487 27996 ft 423 kts 348°
2026-04-26 19:17 44.41352 6.88758 28434 ft 426 kts 348°
2026-04-26 19:17 44.44276 6.88026 28887 ft 428 kts 348°
2026-04-26 19:17 44.47213 6.87295 29306 ft 430 kts 348°
2026-04-26 19:17 44.50169 6.86558 29704 ft 433 kts 348°
2026-04-26 19:18 44.53144 6.85814 30081 ft 435 kts 347°
2026-04-26 19:18 44.56136 6.85066 30417 ft 438 kts 347°
2026-04-26 19:18 44.59143 6.84313 30756 ft 440 kts 347°
2026-04-26 19:18 44.62149 6.83559 31217 ft 438 kts 348°
2026-04-26 19:19 44.65144 6.82806 31691 ft 436 kts 347°
2026-04-26 19:19 44.67103 6.82312 31984 ft 435 kts 348°
2026-04-26 19:19 44.70076 6.81562 32462 ft 434 kts 347°
2026-04-26 19:19 44.74022 6.80561 33092 ft 432 kts 348°
2026-04-26 19:20 44.75976 6.80067 33411 ft 431 kts 348°
2026-04-26 19:20 44.77970 6.79564 33723 ft 430 kts 348°
2026-04-26 19:20 44.81893 6.78914 34315 ft 429 kts 355°
2026-04-26 19:20 44.84851 6.78725 34708 ft 427 kts 355°
2026-04-26 19:21 44.87816 6.78531 35060 ft 426 kts 355°
2026-04-26 19:21 44.90775 6.78339 35348 ft 425 kts 355°
2026-04-26 19:21 44.93725 6.78150 35598 ft 425 kts 355°
2026-04-26 19:21 44.96679 6.77957 35851 ft 424 kts 355°
2026-04-26 19:22 44.99621 6.77760 36094 ft 423 kts 355°
2026-04-26 19:22 45.05490 6.77364 36185 ft 421 kts 355°
2026-04-26 19:23 45.11340 6.76978 36187 ft 421 kts 355°
2026-04-26 19:23 45.17194 6.76595 36186 ft 421 kts 355°
2026-04-26 19:24 45.23033 6.76203 36180 ft 419 kts 355°
2026-04-26 19:24 45.31758 6.75616 36177 ft 418 kts 355°
2026-04-26 19:25 45.36586 6.75293 36171 ft 418 kts 355°
2026-04-26 19:25 45.43375 6.74838 36196 ft 418 kts 357°
2026-04-26 19:26 45.49180 6.74448 36189 ft 417 kts 355°
2026-04-26 19:26 45.54975 6.74058 36194 ft 417 kts 355°
2026-04-26 19:27 45.60769 6.73666 36207 ft 416 kts 355°
2026-04-26 19:27 45.66544 6.73266 36198 ft 415 kts 355°
2026-04-26 19:28 45.72317 6.72868 36178 ft 415 kts 355°
2026-04-26 19:28 45.78085 6.72469 36192 ft 415 kts 355°
2026-04-26 19:29 45.83947 6.72050 36188 ft 427 kts 355°
2026-04-26 19:29 45.89909 6.71643 36185 ft 430 kts 356°
2026-04-26 19:30 45.95888 6.71247 36184 ft 430 kts 356°
2026-04-26 19:30 46.00845 6.70916 36180 ft 428 kts 356°
2026-04-26 19:31 46.07785 6.70437 36181 ft 427 kts 356°
2026-04-26 19:31 46.13668 6.69522 36165 ft 425 kts 345°
2026-04-26 19:32 46.19284 6.66889 36175 ft 424 kts 341°
2026-04-26 19:32 46.24879 6.64166 36165 ft 424 kts 341°
2026-04-26 19:33 46.30471 6.61448 36155 ft 425 kts 341°
2026-04-26 19:33 46.36083 6.58716 36147 ft 426 kts 341°
2026-04-26 19:34 46.41704 6.55964 36160 ft 426 kts 341°
2026-04-26 19:34 46.47282 6.53223 36159 ft 426 kts 341°
2026-04-26 19:35 46.52904 6.50460 36152 ft 427 kts 341°
2026-04-26 19:35 46.58535 6.47690 36152 ft 427 kts 341°
2026-04-26 19:36 46.63251 6.45371 36161 ft 427 kts 341°
2026-04-26 19:36 46.69787 6.42142 36162 ft 427 kts 341°
2026-04-26 19:37 46.75409 6.39355 36169 ft 427 kts 341°
2026-04-26 19:37 46.81032 6.36563 36187 ft 427 kts 341°
2026-04-26 19:38 46.86817 6.34569 36181 ft 427 kts 358°
2026-04-26 19:38 46.92714 6.34422 36183 ft 427 kts 358°
2026-04-26 19:39 46.98699 6.34263 36184 ft 427 kts 358°
2026-04-26 19:39 47.04636 6.34115 36195 ft 427 kts 358°
2026-04-26 19:40 47.10568 6.33969 36197 ft 426 kts 358°
2026-04-26 19:40 47.16450 6.33815 36201 ft 425 kts 358°
2026-04-26 19:41 47.22357 6.33656 36212 ft 425 kts 357°
2026-04-26 19:41 47.27303 6.33467 36208 ft 424 kts 356°
2026-04-26 19:42 47.34144 6.33006 36201 ft 423 kts 355°
2026-04-26 19:42 47.40026 6.32587 36193 ft 423 kts 356°
2026-04-26 19:43 47.45909 6.32205 36199 ft 423 kts 356°
2026-04-26 19:43 47.51780 6.31839 36194 ft 422 kts 356°
2026-04-26 19:44 47.57652 6.31472 36189 ft 422 kts 356°
2026-04-26 19:44 47.63520 6.31106 36200 ft 422 kts 356°
2026-04-26 19:45 47.69352 6.30732 36183 ft 422 kts 355°
2026-04-26 19:45 47.75255 6.30350 36183 ft 422 kts 355°
2026-04-26 19:46 47.81086 6.29965 36188 ft 422 kts 355°
2026-04-26 19:46 47.87000 6.29588 36196 ft 422 kts 355°
2026-04-26 19:47 47.91877 6.29285 36198 ft 422 kts 355°
2026-04-26 19:47 47.98704 6.28845 36202 ft 423 kts 355°
2026-04-26 19:48 48.04581 6.28462 36197 ft 423 kts 355°
2026-04-26 19:48 48.10456 6.28077 36209 ft 423 kts 355°
2026-04-26 19:49 48.16330 6.27691 36216 ft 422 kts 355°
2026-04-26 19:49 48.22204 6.27305 36215 ft 423 kts 355°
2026-04-26 19:50 48.28080 6.26927 36227 ft 423 kts 355°
2026-04-26 19:50 48.33953 6.26540 36222 ft 422 kts 355°
2026-04-26 19:51 48.39830 6.26154 36221 ft 423 kts 355°
2026-04-26 19:51 48.45702 6.25771 36220 ft 423 kts 355°
2026-04-26 19:52 48.51578 6.25377 36229 ft 423 kts 355°
2026-04-26 19:52 48.57456 6.24990 36224 ft 423 kts 355°
2026-04-26 19:53 48.63330 6.24610 36217 ft 423 kts 355°
2026-04-26 19:53 48.69204 6.24223 36216 ft 423 kts 355°
2026-04-26 19:54 48.75087 6.23837 36219 ft 423 kts 355°
2026-04-26 19:54 48.80966 6.23450 36217 ft 423 kts 355°
2026-04-26 19:55 48.86840 6.23053 36216 ft 423 kts 355°
2026-04-26 19:55 48.92722 6.22660 36226 ft 423 kts 355°
2026-04-26 19:56 48.98602 6.22256 36220 ft 423 kts 355°
2026-04-26 19:56 49.04457 6.21867 36218 ft 423 kts 355°
2026-04-26 19:57 49.10344 6.21478 36223 ft 423 kts 355°
2026-04-26 19:57 49.16231 6.21094 36244 ft 423 kts 355°
2026-04-26 19:58 49.22118 6.20699 36226 ft 424 kts 355°
2026-04-26 19:58 49.28015 6.20291 36222 ft 424 kts 355°
2026-04-26 19:59 49.33920 6.19888 36230 ft 425 kts 355°
2026-04-26 19:59 49.39831 6.19484 36242 ft 425 kts 355°
2026-04-26 20:00 49.45739 6.19080 36244 ft 426 kts 354°
2026-04-26 20:00 49.51666 6.18667 36055 ft 426 kts 355°
2026-04-26 20:01 49.54628 6.18465 35804 ft 426 kts 355°
2026-04-26 20:01 49.57588 6.18266 35553 ft 426 kts 355°
2026-04-26 20:01 49.60528 6.18067 35322 ft 426 kts 354°
2026-04-26 20:01 49.63492 6.17870 35082 ft 426 kts 354°
2026-04-26 20:02 49.66451 6.17675 34831 ft 426 kts 354°
2026-04-26 20:02 49.69412 6.17474 34589 ft 426 kts 354°
2026-04-26 20:02 49.72331 6.17275 34353 ft 426 kts 354°
2026-04-26 20:02 49.73333 6.17207 34265 ft 426 kts 354°
2026-04-26 20:03 49.78255 6.16867 33819 ft 426 kts 354°
2026-04-26 20:03 49.81220 6.16657 33557 ft 427 kts 354°
2026-04-26 20:03 49.84196 6.16447 33290 ft 428 kts 354°
2026-04-26 20:03 49.87170 6.16240 33023 ft 429 kts 354°
2026-04-26 20:04 49.90159 6.16037 32753 ft 430 kts 354°
2026-04-26 20:04 49.93148 6.15831 32402 ft 429 kts 354°
2026-04-26 20:04 49.96133 6.15622 31504 ft 430 kts 354°
2026-04-26 20:04 49.98117 6.15480 30861 ft 432 kts 354°
2026-04-26 20:05 50.01128 6.15265 29814 ft 436 kts 354°
2026-04-26 20:05 50.04175 6.15049 28647 ft 439 kts 354°
2026-04-26 20:05 50.07236 6.14830 27460 ft 443 kts 354°
2026-04-26 20:05 50.10324 6.14607 26244 ft 447 kts 355°
2026-04-26 20:06 50.13447 6.14384 25124 ft 450 kts 355°
2026-04-26 20:06 50.16545 6.14169 24133 ft 442 kts 355°
2026-04-26 20:06 50.19608 6.13956 23029 ft 441 kts 355°
2026-04-26 20:06 50.22658 6.13741 22230 ft 436 kts 355°
2026-04-26 20:07 50.25671 6.13612 21484 ft 432 kts 360°
2026-04-26 20:07 50.28650 6.14160 20781 ft 430 kts
2026-04-26 20:07 50.31510 6.15497 20074 ft 428 kts 19°
2026-04-26 20:07 50.34166 6.17569 19288 ft 426 kts 29°
2026-04-26 20:08 50.36636 6.20105 18516 ft 423 kts 31°
2026-04-26 20:08 50.39078 6.22626 17669 ft 417 kts 31°
2026-04-26 20:08 50.41485 6.25108 16813 ft 412 kts 31°
2026-04-26 20:08 50.43875 6.27576 16060 ft 410 kts 31°
2026-04-26 20:09 50.46229 6.30058 15499 ft 406 kts 35°
2026-04-26 20:09 50.48335 6.32997 14960 ft 405 kts 45°
2026-04-26 20:09 50.50069 6.36466 14423 ft 404 kts 55°
2026-04-26 20:09 50.51372 6.40359 13846 ft 402 kts 65°
2026-04-26 20:10 50.52466 6.44391 13210 ft 399 kts 65°
2026-04-26 20:10 50.53552 6.48391 12616 ft 397 kts 65°
2026-04-26 20:10 50.54627 6.52338 12119 ft 390 kts 65°
2026-04-26 20:10 50.55685 6.56217 11714 ft 382 kts 64°
2026-04-26 20:11 50.56720 6.60018 11339 ft 373 kts 64°
2026-04-26 20:11 50.57723 6.63716 11071 ft 362 kts 64°
2026-04-26 20:11 50.58694 6.67306 10825 ft 351 kts 64°
2026-04-26 20:12 50.60483 6.74040 10367 ft 319 kts 68°
2026-04-26 20:12 50.61007 6.77380 10171 ft 310 kts 79°
2026-04-26 20:12 50.61261 6.80704 9915 ft 304 kts 81°
2026-04-26 20:12 50.61507 6.83977 9643 ft 299 kts 81°
2026-04-26 20:13 50.61750 6.87209 9389 ft 296 kts 81°
2026-04-26 20:13 50.61989 6.90424 9133 ft 294 kts 81°
2026-04-26 20:13 50.62227 6.93617 8871 ft 293 kts 81°
2026-04-26 20:13 50.62463 6.96796 8611 ft 292 kts 81°
2026-04-26 20:14 50.62698 6.99958 8367 ft 290 kts 81°
2026-04-26 20:14 50.62932 7.03102 8056 ft 288 kts 81°
2026-04-26 20:14 50.63161 7.06222 7716 ft 286 kts 81°
2026-04-26 20:14 50.63389 7.09326 7373 ft 284 kts 81°
2026-04-26 20:15 50.63615 7.12405 7040 ft 282 kts 81°
2026-04-26 20:15 50.63837 7.15467 6689 ft 281 kts 81°
2026-04-26 20:15 50.64057 7.18512 6322 ft 279 kts 81°
2026-04-26 20:15 50.64273 7.21538 5973 ft 277 kts 81°
2026-04-26 20:16 50.64489 7.24533 5627 ft 274 kts 82°
2026-04-26 20:16 50.64774 7.27476 5316 ft 269 kts 71°
2026-04-26 20:16 50.65606 7.30037 5073 ft 260 kts 50°
2026-04-26 20:16 50.66798 7.32122 4811 ft 251 kts 46°
2026-04-26 20:17 50.67949 7.34104 4550 ft 239 kts 46°
2026-04-26 20:17 50.69055 7.35974 4297 ft 229 kts 41°
2026-04-26 20:17 50.70452 7.36982 4046 ft 221 kts
2026-04-26 20:17 50.71451 7.36680 3894 ft 216 kts 332°
2026-04-26 20:18 50.72976 7.34734 3619 ft 212 kts 317°
2026-04-26 20:18 50.74057 7.33149 3380 ft 212 kts 316°
2026-04-26 20:18 50.75134 7.31554 3091 ft 210 kts 317°
2026-04-26 20:18 50.76197 7.30013 2817 ft 205 kts 317°
2026-04-26 20:19 50.77234 7.28520 2560 ft 198 kts 318°
2026-04-26 20:19 50.78236 7.27078 2291 ft 193 kts 318°
2026-04-26 20:19 50.79202 7.25687 2018 ft 182 kts 319°
2026-04-26 20:19 50.80107 7.24382 1771 ft 170 kts 319°
2026-04-26 20:20 50.80940 7.23180 1575 ft 154 kts 319°
2026-04-26 20:20 50.81705 7.22077 1354 ft 143 kts 319°
2026-04-26 20:20 50.82424 7.21040 1161 ft 138 kts 320°
2026-04-26 20:20 50.83125 7.20029 980 ft 135 kts 319°
2026-04-26 20:21 50.83807 7.19027 806 ft 134 kts 319°
2026-04-26 20:21 50.84496 7.18037 639 ft 134 kts 320°
2026-04-26 20:21 50.85183 7.17047 449 ft 133 kts 320°
2026-04-26 20:21 50.85861 7.16058 307 ft 128 kts 323°
2026-04-26 20:22 50.86412 7.15282 284 ft 85 kts 317°
2026-04-26 20:22 50.86814 7.14696 265 ft 73 kts 317°
2026-04-26 20:22 50.87161 7.14193 249 ft 63 kts 318°
2026-04-26 20:22 50.87463 7.13757 241 ft 54 kts 317°
2026-04-26 20:23 50.87729 7.13372 239 ft 50 kts 316°
2026-04-26 20:23 50.87843 7.13113 239 ft 18 kts 239°
2026-04-26 20:23 50.87822 7.12984 237 ft 14 kts 257°
2026-04-26 20:23 50.87798 7.12826 232 ft 15 kts 257°
2026-04-26 20:24 50.87789 7.12694 235 ft 14 kts 286°
2026-04-26 20:24 50.87789 7.12563 233 ft 12 kts 200°
2026-04-26 20:24 50.87714 7.12523 232 ft 6 kts 204°
2026-04-26 20:24 50.87720 7.12455 234 ft 9 kts 289°
2026-04-26 20:25 50.87734 7.12390 234 ft 5 kts 288°
2026-04-26 20:25 50.87734 7.12388 232 ft 0 kts 288°